Date,TemperatureHighF,TemperatureAvgF,TemperatureLowF,DewpointHighF,DewpointAvgF,DewpointLowF,HumidityHigh,HumidityAvg,HumidityLow,PressureMaxIn,PressureMinIn,WindSpeedMaxMPH,WindSpeedAvgMPH,GustSpeedMaxMPH,PrecipitationSumIn
2013-5-11,-200,0,200,-100,-100,-100,0,0,100,0.00,40.00,2,2,5,0.00
2013-5-13,89,77,68,-100,-100,-100,0,0,100,0.00,40.00,7,4,11,0.00
2013-5-14,102,75,50,-100,-100,-100,0,0,100,0.00,40.00,19,7,23,0.00
2013-5-15,80,66,55,-100,-100,-100,0,0,100,0.00,40.00,23,11,29,0.00
2013-5-16,73,53,46,-100,-100,-100,0,0,100,0.00,40.00,14,7,21,0.00
2013-5-17,86,67,51,-100,-100,-100,0,0,100,0.00,40.00,16,9,31,0.00
2013-5-18,82,66,48,-100,-100,-100,0,0,100,0.00,40.00,21,8,29,0.00
2013-5-19,51,49,44,-100,-100,-100,0,0,100,0.00,40.00,25,9,30,0.00
2013-5-20,51,46,42,-100,-100,-100,0,0,100,0.00,40.00,32,16,40,0.00
2013-5-21,53,45,39,-100,-100,-100,0,0,100,0.00,40.00,27,16,34,0.00
2013-5-22,60,47,39,-100,-100,-100,0,0,100,0.00,40.00,17,10,19,0.00
2013-5-23,66,53,41,-100,-100,-100,0,0,100,0.00,40.00,23,10,25,0.00
2013-5-24,80,59,48,-100,-100,-100,0,0,100,0.00,40.00,21,10,27,0.00
2013-5-25,89,68,53,-100,-100,-100,0,0,100,0.00,40.00,24,10,28,0.00
2013-5-26,87,71,57,-100,-100,-100,0,0,100,0.00,40.00,14,6,21,0.00
2013-5-27,71,59,53,-100,-100,-100,0,0,100,0.00,40.00,39,13,58,0.00
2013-5-28,80,61,42,-100,-100,-100,0,0,100,0.00,40.00,26,8,44,0.00
2013-5-29,64,54,46,-100,-100,-100,0,0,100,0.00,40.00,25,9,29,0.00
2013-5-30,69,55,42,-100,-100,-100,0,0,100,0.00,40.00,28,11,32,0.00
2013-5-31,62,50,37,-100,-100,-100,0,0,100,0.00,40.00,50,19,50,0.00
2013-6-1,60,49,42,-100,-100,-100,0,0,100,0.00,40.00,27,17,39,0.00
2013-6-2,73,54,32,-100,-100,-100,0,0,100,0.00,40.00,10,5,21,0.00
2013-6-3,89,62,44,-100,-100,-100,0,0,100,0.00,40.00,13,6,19,0.00
2013-6-4,77,61,50,-100,-100,-100,0,0,100,0.00,40.00,17,9,24,0.00
2013-6-5,60,49,41,-100,-100,-100,0,0,100,0.00,40.00,19,7,25,0.00
2013-6-6,77,58,37,-100,-100,-100,0,0,100,0.00,40.00,7,3,12,0.00
2013-6-7,84,60,42,-100,-100,-100,0,0,100,0.00,40.00,11,4,15,0.00
2013-6-8,68,58,48,-100,-100,-100,0,0,100,0.00,40.00,19,8,28,0.00
2013-6-9,91,63,44,-100,-100,-100,0,0,100,0.00,40.00,13,6,17,0.00
2013-6-10,107,73,50,-100,-100,-100,0,0,100,0.00,40.00,13,5,20,0.00
2013-6-11,96,77,62,-100,-100,-100,0,0,100,0.00,40.00,15,9,28,0.00
2013-6-12,82,67,53,-100,-100,-100,0,0,100,0.00,40.00,20,12,23,0.00
2013-6-13,82,65,46,-100,-100,-100,0,0,100,0.00,40.00,12,7,22,0.00
2013-6-14,87,72,60,-100,-100,-100,0,0,100,0.00,40.00,15,7,16,0.00
2013-6-15,84,69,57,-100,-100,-100,0,0,100,0.00,40.00,14,8,18,0.00
2013-6-16,87,68,55,-100,-100,-100,0,0,100,0.00,40.00,24,8,36,0.00
2013-6-17,84,64,46,-100,-100,-100,0,0,100,0.00,40.00,11,5,11,0.00
2013-6-18,87,70,53,-100,-100,-100,0,0,100,0.00,40.00,14,8,20,0.00
2013-6-19,82,70,53,-100,-100,-100,0,0,100,0.00,40.00,19,8,29,0.00
2013-6-20,82,70,59,-100,-100,-100,0,0,100,0.00,40.00,13,6,19,0.00
2013-6-22,77,70,57,-100,-100,-100,0,0,100,0.00,40.00,19,12,30,0.00
2013-6-23,87,70,51,-100,-100,-100,0,0,100,0.00,40.00,13,6,26,0.00
2013-6-24,87,73,59,-100,-100,-100,0,0,100,0.00,40.00,16,8,27,0.00
2013-6-25,87,72,59,-100,-100,-100,0,0,100,0.00,40.00,23,8,26,0.00
2013-6-26,96,77,51,-100,-100,-100,0,0,100,0.00,40.00,12,4,17,0.00
2013-6-27,93,77,66,-100,-100,-100,0,0,100,0.00,40.00,25,9,26,0.00
2013-6-28,89,75,60,-100,-100,-100,0,0,100,0.00,40.00,14,7,20,0.00
2013-6-29,86,70,55,-100,-100,-100,0,0,100,0.00,40.00,13,7,20,0.00
2013-6-30,84,67,50,-100,-100,-100,0,0,100,0.00,40.00,16,4,17,0.00
2013-7-1,82,66,53,-100,-100,-100,0,0,100,0.00,40.00,12,5,15,0.00
2013-7-2,84,67,48,-100,-100,-100,0,0,100,0.00,40.00,9,3,14,0.00
2013-7-3,89,70,50,-100,-100,-100,0,0,100,0.00,40.00,10,4,15,0.00
2013-7-4,91,73,53,-100,-100,-100,0,0,100,0.00,40.00,15,5,19,0.00
2013-7-5,91,75,51,-100,-100,-100,0,0,100,0.00,40.00,8,4,19,0.00
2013-7-6,95,75,57,-100,-100,-100,0,0,100,0.00,40.00,13,4,14,0.00
2013-7-7,95,78,64,-100,-100,-100,0,0,100,0.00,40.00,17,7,23,0.00
2013-7-8,96,72,57,-100,-100,-100,0,0,100,0.00,40.00,10,4,15,0.00
2013-7-9,96,79,60,-100,-100,-100,0,0,100,0.00,40.00,16,7,19,0.00
2013-7-10,87,70,60,-100,-100,-100,0,0,100,0.00,40.00,14,5,26,0.00
2013-7-11,95,75,59,-100,-100,-100,0,0,100,0.00,40.00,13,6,23,0.00
2013-7-12,102,83,66,-100,-100,-100,0,0,100,0.00,40.00,10,4,16,0.00
2013-7-13,98,80,66,-100,-100,-100,0,0,100,0.00,40.00,16,7,34,0.00
2013-7-14,78,70,64,-100,-100,-100,0,0,100,0.00,40.00,27,9,28,0.00
2013-7-15,82,69,60,-100,-100,-100,0,0,100,0.00,40.00,14,5,21,0.00
2013-7-16,82,68,57,-100,-100,-100,0,0,100,0.00,40.00,15,5,20,0.00
2013-7-17,84,71,57,-100,-100,-100,0,0,100,0.00,40.00,17,6,24,0.00
2013-7-18,95,80,60,-100,-100,-100,0,0,100,0.00,40.00,15,7,23,0.00
2013-7-19,87,75,59,-100,-100,-100,0,0,100,0.00,40.00,19,8,25,0.00
2013-7-20,89,71,53,-100,-100,-100,0,0,100,0.00,40.00,16,5,19,0.00
2013-7-21,89,72,53,-100,-100,-100,0,0,100,0.00,40.00,15,6,23,0.00
2013-7-22,93,76,60,-100,-100,-100,0,0,100,0.00,40.00,16,6,19,0.00
2013-7-23,93,72,59,-100,-100,-100,0,0,100,0.00,40.00,18,7,26,0.00
2013-7-24,87,67,55,-100,-100,-100,0,0,100,0.00,40.00,13,5,24,0.00
2013-7-25,80,67,57,-100,-100,-100,0,0,100,0.00,40.00,12,5,14,0.00
2013-7-26,80,65,55,-100,-100,-100,0,0,100,0.00,40.00,13,7,21,0.00
2013-7-27,64,57,50,-100,-100,-100,0,0,100,0.00,40.00,13,7,20,0.00
2013-7-28,57,54,51,-100,-100,-100,0,0,100,0.00,40.00,13,5,17,0.00
2013-7-29,78,63,53,-100,-100,-100,0,0,100,0.00,40.00,7,3,15,0.00
2013-7-30,87,69,57,-100,-100,-100,0,0,100,0.00,40.00,14,5,20,0.00
2013-7-31,64,60,59,-100,-100,-100,0,0,100,0.00,40.00,11,4,18,0.00
2013-8-2,86,75,66,-100,-100,-100,0,0,100,0.00,40.00,15,9,19,0.00
2013-8-3,73,64,60,-100,-100,-100,0,0,100,0.00,40.00,23,8,25,0.00
2013-8-4,82,69,59,-100,-100,-100,0,0,100,0.00,40.00,11,4,13,0.00
2013-8-5,91,72,59,-100,-100,-100,0,0,100,0.00,40.00,10,4,21,0.00
2013-8-6,84,72,57,-100,-100,-100,0,0,100,0.00,40.00,11,5,15,0.00
2013-8-7,78,66,55,-100,-100,-100,0,0,100,0.00,40.00,11,4,15,0.00
2013-8-8,82,64,53,-100,-100,-100,0,0,100,0.00,40.00,11,3,17,0.00
2013-8-9,80,67,46,-100,-100,-100,0,0,100,0.00,40.00,11,3,13,0.00
2013-8-10,84,74,53,-100,-100,-100,0,0,100,0.00,40.00,11,5,20,0.00
2013-8-11,89,67,57,-100,-100,-100,0,0,100,0.00,40.00,7,4,12,0.00
2013-8-12,89,69,55,-100,-100,-100,0,0,100,0.00,40.00,7,4,13,0.00
2013-8-13,84,66,57,-100,-100,-100,0,0,100,0.00,40.00,12,5,16,0.00
2013-8-14,86,68,57,-100,-100,-100,0,0,100,0.00,40.00,17,3,20,0.00
2013-8-15,82,62,53,-100,-100,-100,0,0,100,0.00,40.00,13,6,21,0.00
2013-8-16,78,66,59,-100,-100,-100,0,0,100,0.00,40.00,8,4,13,0.00
2013-8-17,75,64,59,-100,-100,-100,0,0,100,0.00,40.00,11,5,19,0.00
2013-8-18,78,69,62,-100,-100,-100,0,0,100,0.00,40.00,15,6,21,0.00
2013-8-19,95,71,55,-100,-100,-100,0,0,100,0.00,40.00,6,2,14,0.00
2013-8-20,96,77,55,-100,-100,-100,0,0,100,0.00,40.00,13,4,18,0.00
2013-8-21,98,77,60,-100,-100,-100,0,0,100,0.00,40.00,25,5,28,0.00
2013-8-22,84,71,59,-100,-100,-100,0,0,100,0.00,40.00,16,9,19,0.00
2013-8-23,87,73,62,-100,-100,-100,0,0,100,0.00,40.00,11,4,19,0.00
2013-8-24,98,75,57,-100,-100,-100,0,0,100,0.00,40.00,11,4,23,0.00
2013-8-25,100,81,62,-100,-100,-100,0,0,100,0.00,40.00,10,6,17,0.00
2013-8-26,100,80,64,-100,-100,-100,0,0,100,0.00,40.00,10,4,13,0.00
2013-8-27,98,75,57,-100,-100,-100,0,0,100,0.00,40.00,10,4,12,0.00
2013-8-28,98,89,71,-100,-100,-100,0,0,100,0.00,40.00,15,7,17,0.00
2013-8-29,102,79,53,-100,-100,-100,0,0,100,0.00,40.00,9,3,10,0.00
2013-8-30,98,78,64,-100,-100,-100,0,0,100,0.00,40.00,20,9,27,0.00
2013-8-31,100,75,55,-100,-100,-100,0,0,100,0.00,40.00,20,6,20,0.00
2013-9-1,87,71,53,-100,-100,-100,0,0,100,0.00,40.00,10,3,15,0.00
2013-9-2,89,70,48,-100,-100,-100,0,0,100,0.00,40.00,11,4,19,0.00
2013-9-3,96,76,57,-100,-100,-100,0,0,100,0.00,40.00,12,5,17,0.00
2013-9-4,100,80,60,-100,-100,-100,0,0,100,0.00,40.00,9,4,14,0.00
2013-9-5,98,80,69,-100,-100,-100,0,0,100,0.00,40.00,17,5,24,0.00
2013-9-6,104,81,59,-100,-100,-100,0,0,100,0.00,40.00,12,3,16,0.00
2013-9-7,102,80,60,-100,-100,-100,0,0,100,0.00,40.00,16,6,19,0.00
2013-9-8,100,78,59,-100,-100,-100,0,0,100,0.00,40.00,14,5,20,0.00
2013-9-9,96,76,57,-100,-100,-100,0,0,100,0.00,40.00,17,6,21,0.00
2013-9-10,80,68,55,-100,-100,-100,0,0,100,0.00,40.00,15,8,24,0.00
2013-9-11,73,64,59,-100,-100,-100,0,0,100,0.00,40.00,13,6,16,0.00
2013-9-12,80,67,60,-100,-100,-100,0,0,100,0.00,40.00,15,6,22,0.00
2013-9-13,62,54,50,-100,-100,-100,0,0,100,0.00,40.00,11,6,20,0.00
2013-9-14,80,63,53,-100,-100,-100,0,0,100,0.00,40.00,10,5,18,0.00
2013-9-15,66,58,53,-100,-100,-100,0,0,100,0.00,40.00,17,10,20,0.00
2013-9-16,53,50,48,-100,-100,-100,0,0,100,0.00,40.00,10,5,18,0.00
2013-9-17,86,66,50,-100,-100,-100,0,0,100,0.00,40.00,11,4,15,0.00
2013-9-18,64,58,51,-100,-100,-100,0,0,100,0.00,40.00,10,3,21,0.00
2013-9-19,64,56,48,-100,-100,-100,0,0,100,0.00,40.00,15,7,21,0.00
2013-9-20,77,58,35,-100,-100,-100,0,0,100,0.00,40.00,4,2,11,0.00
2013-9-21,82,60,41,-100,-100,-100,0,0,100,0.00,40.00,10,4,19,0.00
2013-9-22,84,67,50,-100,-100,-100,0,0,100,0.00,40.00,15,6,29,0.00
2013-9-23,69,57,48,-100,-100,-100,0,0,100,0.00,40.00,21,9,31,0.00
2013-9-24,80,59,41,-100,-100,-100,0,0,100,0.00,40.00,10,6,14,0.00
2013-9-25,82,61,44,-100,-100,-100,0,0,100,0.00,40.00,23,8,29,0.00
2013-9-26,84,64,46,-100,-100,-100,0,0,100,0.00,40.00,18,8,23,0.00
2013-9-27,59,51,42,-100,-100,-100,0,0,100,0.00,40.00,17,12,25,0.00
2013-9-28,62,50,35,-100,-100,-100,0,0,100,0.00,40.00,21,12,25,0.00
2013-9-29,78,64,32,-100,-100,-100,0,0,100,0.00,40.00,7,3,13,0.00
2013-9-30,84,62,39,-100,-100,-100,0,0,100,0.00,40.00,12,5,21,0.00
2013-10-1,71,54,46,-100,-100,-100,0,0,100,0.00,40.00,5,3,7,0.00
2013-10-2,82,56,39,-100,-100,-100,0,0,100,0.00,40.00,15,5,27,0.00
2013-10-3,51,46,44,-100,-100,-100,0,0,100,0.00,40.00,17,10,19,0.00
2013-10-4,44,37,29,-100,-100,-100,0,0,100,0.00,40.00,35,21,52,0.00
2013-10-5,37,34,31,-100,-100,-100,0,0,100,0.00,40.00,28,24,39,0.00
2013-10-6,60,52,37,-100,-100,-100,0,0,100,0.00,40.00,18,11,31,0.00
2013-10-7,78,59,29,-100,-100,-100,0,0,100,0.00,40.00,12,5,16,0.00
2013-10-8,77,58,32,-100,-100,-100,0,0,100,0.00,40.00,10,5,15,0.00
2013-10-9,73,54,37,-100,-100,-100,0,0,100,0.00,40.00,11,7,19,0.00
2013-10-10,77,54,35,-100,-100,-100,0,0,100,0.00,40.00,24,7,29,0.00
2013-10-11,51,45,39,-100,-100,-100,0,0,100,0.00,40.00,23,14,37,0.00
2013-10-12,57,44,32,-100,-100,-100,0,0,100,0.00,40.00,10,6,14,0.00
2013-10-13,62,52,35,-100,-100,-100,0,0,100,0.00,40.00,13,8,26,0.00
2013-10-14,55,51,50,-100,-100,-100,0,0,100,0.00,40.00,15,8,27,0.00
2013-10-15,31,31,31,-100,-100,-100,0,0,100,0.00,40.00,15,9,29,0.00
2013-10-16,46,42,33,-100,-100,-100,0,0,100,0.00,40.00,12,8,16,0.00
2013-10-17,39,33,27,-100,-100,-100,0,0,100,0.00,40.00,18,14,27,0.00
2013-10-18,39,34,29,-100,-100,-100,0,0,100,0.00,40.00,12,7,24,0.00
2013-10-19,59,45,22,-100,-100,-100,0,0,100,0.00,40.00,22,10,27,0.00
2013-10-20,51,39,29,-100,-100,-100,0,0,100,0.00,40.00,19,8,25,0.00
2013-10-21,51,44,27,-100,-100,-100,0,0,100,0.00,40.00,23,11,32,0.00
2013-10-22,55,44,32,-100,-100,-100,0,0,100,0.00,40.00,20,9,30,0.00
2013-10-23,59,45,29,-100,-100,-100,0,0,100,0.00,40.00,15,9,23,0.00
2013-10-24,50,36,31,-100,-100,-100,0,0,100,0.00,40.00,9,3,14,0.00
2013-10-25,64,48,29,-100,-100,-100,0,0,100,0.00,40.00,11,5,17,0.00
2013-11-1,41,36,23,-100,-100,-100,0,0,100,0.00,40.00,26,15,30,0.00
2013-11-2,57,44,18,-100,-100,-100,0,0,100,0.00,40.00,17,6,25,0.00
2013-11-3,51,39,27,-100,-100,-100,0,0,100,0.00,40.00,10,5,14,0.00
2013-11-4,44,36,29,-100,-100,-100,0,0,100,0.00,40.00,17,5,26,0.00
2013-11-6,22,19,16,-100,-100,-100,0,0,100,0.00,40.00,9,6,12,0.00
2013-11-7,50,41,22,-100,-100,-100,0,0,100,0.00,40.00,9,5,14,0.00
2013-11-8,62,41,27,-100,-100,-100,0,0,100,0.00,40.00,22,9,27,0.00
2013-11-9,51,36,27,-100,-100,-100,0,0,100,0.00,40.00,8,5,9,0.00
2013-11-10,59,39,23,-100,-100,-100,0,0,100,0.00,40.00,9,4,17,0.00
2013-11-11,29,24,22,-100,-100,-100,0,0,100,0.00,40.00,10,8,14,0.00
2013-11-12,37,26,18,-100,-100,-100,0,0,100,0.00,40.00,7,5,15,0.00
2013-11-13,64,47,31,-100,-100,-100,0,0,100,0.00,40.00,9,4,16,0.00